VA3XLT-1 Weather Reports


time (UTC)temp
F
wind
direction
speed
knots
gust
knots
rain 1hr
in
rain 24hr
in
rain mn
in
humidity
%
barometer
mb
20260506070735 48 143 0.0 0.0 0.00 0.00 0.00 94 1008.5
20260506070235 48 143 0.0 0.0 0.00 0.00 0.00 94 1008.5
20260506062236 48 143 0.0 0.0 0.00 0.00 0.00 94 1008.2
20260506061736 48 143 0.0 0.0 0.00 0.00 0.00 95 1008.3
20260506061236 48 143 0.0 0.0 0.00 0.00 0.00 95 1008.3
20260506060736 48 143 0.0 0.0 0.00 0.00 0.00 94 1008.5
20260506060236 48 143 0.0 0.0 0.00 0.00 0.00 94 1008.5
20260506051236 49 215 0.0 0.0 0.00 0.00 0.00 95 1008.8
20260506050736 49 215 0.0 0.0 0.00 0.00 0.00 95 1008.8
20260506050236 49 215 0.0 0.0 0.00 0.00 0.00 95 1008.7
20260506044736 50 215 0.0 0.0 0.00 0.00 0.00 96 1008.8
20260506044236 50 215 0.0 0.0 0.00 0.00 0.00 95 1008.7
20260506043736 50 215 0.0 0.0 0.00 0.00 0.00 96 1008.9
20260506043236 50 215 0.0 0.0 0.00 0.00 0.00 96 1008.8
20260506042736 50 215 0.0 0.0 0.00 0.00 0.00 96 1008.8
20260506042236 50 215 0.0 0.0 0.00 0.00 0.00 96 1008.7
20260506041736 50 215 0.0 0.0 0.00 0.00 0.00 96 1008.6
20260506041236 50 215 0.0 0.0 0.00 0.00 0.00 96 1008.6
20260506040736 50 215 0.0 0.0 0.00 0.00 0.00 96 1008.7
20260506040236 50 215 0.0 0.0 0.00 0.00 0.00 96 1008.7
20260506035736 50 215 0.0 0.0 0.00 0.00 0.00 96 1008.7
20260506035236 50 215 0.0 0.0 0.00 0.00 0.00 96 1008.7
20260506034736 50 215 0.0 0.0 0.00 0.00 0.00 96 1008.8
20260506034236 50 215 0.0 0.0 0.00 0.00 0.00 96 1008.8
20260506033736 50 215 0.0 0.0 0.00 0.00 0.00 96 1008.9
20260506033236 50 215 0.0 0.0 0.00 0.00 0.00 96 1008.9
20260506032736 50 215 0.0 0.0 0.00 0.00 0.00 96 1009.0
20260506032236 50 215 0.0 0.0 0.00 0.00 0.00 96 1009.0
20260506031736 50 215 0.0 0.0 0.00 0.00 0.00 96 1009.1
20260506031236 50 215 0.0 0.0 0.00 0.00 0.00 96 1009.0
20260506030736 50 215 0.0 4.3 0.00 0.00 0.00 96 1009.1
20260506030236 50 220 0.0 0.0 0.00 0.00 0.00 96 1009.2
20260506025736 51 220 0.0 0.0 0.00 0.00 0.00 96 1009.1
20260506025236 50 220 0.0 0.0 0.00 0.00 0.00 96 1009.2
20260506024736 51 220 0.0 0.0 0.00 0.00 0.00 96 1009.2
20260506024236 50 220 0.0 0.0 0.00 0.00 0.00 96 1009.1
20260506023736 50 220 0.0 0.0 0.00 0.00 0.00 96 1009.1
20260506023236 50 220 0.0 0.0 0.00 0.00 0.00 96 1008.9
20260506022736 50 220 0.0 0.0 0.00 0.00 0.00 96 1008.9
20260506022236 51 220 0.0 0.0 0.00 0.00 0.00 95 1008.8
20260506021736 50 220 0.0 0.0 0.00 0.00 0.00 95 1008.8
20260506021236 51 220 0.0 0.0 0.00 0.00 0.00 95 1008.7
20260506020736 51 220 0.0 0.0 0.00 0.00 0.00 95 1008.7
20260506020236 51 220 0.0 0.0 0.00 0.00 0.00 95 1008.7
20260506015736 51 220 0.0 0.0 0.00 0.00 0.00 95 1008.6
20260506015236 51 220 0.0 0.0 0.00 0.00 0.00 95 1008.6
20260506014736 51 220 0.0 0.0 0.00 0.00 0.00 95 1008.5
20260506014236 51 220 0.0 0.0 0.00 0.00 0.00 95 1008.4
20260506013736 51 220 0.0 0.0 0.00 0.00 0.00 95 1008.4
20260506013236 51 220 0.0 0.0 0.00 0.00 0.00 95 1008.4
20260506012736 51 220 0.0 0.0 0.00 0.00 0.00 95 1008.4
20260506012236 51 220 0.0 0.0 0.00 0.00 0.00 95 1008.4
20260506011736 51 220 0.0 0.0 0.00 0.00 0.00 95 1008.4
20260506011236 51 220 0.0 0.0 0.00 0.00 0.00 95 1008.4
20260506010736 51 220 0.0 0.0 0.00 0.00 0.00 95 1008.4
20260506010236 51 220 0.0 0.0 0.00 0.00 0.00 95 1008.5
20260506005736 51 220 0.0 0.0 0.00 0.00 0.00 95 1008.5
20260506005236 51 220 0.0 0.0 0.00 0.00 0.00 94 1008.5
20260506004736 51 220 0.0 0.9 0.00 0.00 0.00 94 1008.5
20260506004236 51 209 0.0 0.0 0.00 0.00 0.00 94 1008.5
20260506003736 52 209 0.0 0.0 0.00 0.00 0.00 94 1008.2
20260506003236 52 209 0.0 0.0 0.00 0.00 0.00 94 1008.0
20260506002736 52 209 0.0 0.0 0.00 0.00 0.00 94 1008.0
20260506002236 52 209 0.0 0.0 0.00 0.00 0.00 94 1007.9
20260506001736 52 209 0.0 0.0 0.00 0.00 0.00 94 1007.8
20260506001236 52 209 0.0 0.0 0.00 0.00 0.00 94 1007.8
20260506000736 52 209 0.0 0.0 0.00 0.00 0.00 93 1007.6
20260506000236 52 209 0.0 0.0 0.00 0.00 0.00 93 1007.6
20260505235736 52 209 0.0 0.0 0.00 0.00 0.00 94 1007.6
20260505235236 52 209 0.0 0.0 0.00 0.00 0.00 93 1007.6
20260505234736 52 209 0.0 0.0 0.00 0.00 0.00 94 1007.9
20260505234236 52 209 0.0 2.6 0.00 0.00 0.00 94 1007.8
20260505233736 52 250 0.0 0.0 0.00 0.00 0.00 94 1007.7
20260505233236 52 250 0.0 0.0 0.00 0.00 0.00 94 1007.7
20260505232736 52 250 0.0 0.0 0.00 0.00 0.00 93 1007.6
20260505232236 53 250 0.0 0.0 0.00 0.00 0.00 92 1007.7
20260505231736 52 250 0.0 0.0 0.00 0.00 0.00 92 1007.6
20260505231236 52 250 0.0 3.5 0.00 0.00 0.00 92 1007.6
20260505230736 53 261 0.9 1.7 0.00 0.00 0.00 92 1007.7
20260505230236 53 191 0.0 0.0 0.00 0.00 0.00 92 1007.7
20260505225736 53 191 0.0 1.7 0.00 0.00 0.00 91 1007.9
20260505225236 53 330 0.0 3.5 0.00 0.00 0.00 90 1007.8
20260505224736 53 150 0.0 0.0 0.00 0.00 0.00 90 1007.8
20260505224236 53 150 0.0 0.0 0.00 0.00 0.00 90 1007.7
20260505223736 53 150 0.0 0.0 0.00 0.00 0.00 90 1007.7
20260505223236 53 150 0.0 0.9 0.00 0.00 0.00 91 1007.8
20260505222736 53 150 0.0 0.0 0.00 0.00 0.00 91 1007.9
20260505222236 53 150 0.0 3.5 0.00 0.00 0.00 92 1007.9
20260505221736 54 188 0.0 2.6 0.00 0.00 0.00 91 1007.9
20260505221236 54 298 0.0 0.0 0.00 0.00 0.00 91 1007.9
20260505220736 54 298 0.0 0.0 0.00 0.00 0.00 91 1007.8
20260505220236 54 298 0.0 0.0 0.00 0.00 0.00 90 1007.8
20260505215736 54 298 0.0 0.0 0.00 0.00 0.00 90 1007.8
20260505215236 54 298 0.0 0.0 0.00 0.00 0.00 88 1007.7
20260505214737 54 298 0.0 0.0 0.00 0.00 0.00 88 1007.7
20260505214236 54 298 0.0 0.0 0.00 0.00 0.00 88 1007.8
20260505213737 54 298 0.0 0.9 0.00 0.00 0.00 86 1007.8
20260505213237 54 348 0.0 0.0 0.00 0.00 0.00 86 1007.8
20260505212737 54 348 0.0 0.0 0.00 0.00 0.00 86 1007.7
20260505212237 54 348 0.0 0.0 0.00 0.00 0.00 85 1007.8
20260505211737 55 348 0.0 0.0 0.00 0.00 0.00 83 1007.7
20260505211237 55 348 0.0 0.0 0.00 0.00 0.00 84 1007.8
20260505210737 55 348 0.0 0.0 0.00 0.00 0.00 85 1007.8
20260505210237 55 348 0.0 0.0 0.00 0.00 0.00 85 1007.8
20260505205737 55 348 0.0 0.0 0.00 0.00 0.00 85 1007.8
20260505205237 55 348 0.0 0.9 0.00 0.00 0.00 85 1007.8
20260505204737 55 217 0.0 0.0 0.00 0.00 0.00 84 1008.0
20260505204237 55 217 0.0 0.0 0.00 0.00 0.00 84 1008.1
20260505203737 55 217 0.0 1.7 0.00 0.00 0.00 83 1008.2
20260505203237 56 205 0.9 2.6 0.00 0.00 0.00 84 1008.3
20260505202737 56 300 0.0 0.0 0.00 0.00 0.00 83 1008.4
20260505202237 56 300 0.0 0.0 0.00 0.00 0.00 83 1008.2
20260505201737 56 300 0.0 0.0 0.00 0.00 0.00 81 1008.2
20260505201237 57 300 0.0 0.0 0.00 0.00 0.00 82 1007.9
20260505200737 57 300 0.0 0.0 0.00 0.00 0.00 81 1007.8
20260505200237 57 300 0.0 0.0 0.00 0.00 0.00 80 1007.9
20260505195737 57 300 0.0 4.3 0.00 0.00 0.00 79 1008.1
20260505195237 58 326 3.5 3.5 0.00 0.00 0.00 79 1008.2
20260505194737 58 344 0.0 0.0 0.00 0.00 0.00 76 1008.3
20260505194237 58 344 0.0 1.7 0.00 0.00 0.00 74 1008.4
20260505193737 59 284 0.0 0.0 0.00 0.00 0.00 73 1008.3
20260505193237 59 284 0.0 1.7 0.00 0.00 0.00 69 1008.4
20260505192737 60 319 0.0 5.2 0.00 0.00 0.00 67 1008.4
20260505192237 60 0 0.0 3.5 0.00 0.00 0.00 68 1008.4
20260505191737 60 285 0.0 2.6 0.00 0.00 0.00 68 1008.4
20260505191237 60 246 0.0 2.6 0.00 0.00 0.00 69 1008.2
20260505190737 59 118 0.0 0.0 0.00 0.00 0.00 68 1008.1
20260505190237 59 118 0.0 2.6 0.00 0.00 0.00 68 1008.1
20260505185737 60 298 0.0 0.0 0.00 0.00 0.00 66 1007.9
20260505185237 61 298 0.0 3.5 0.00 0.00 0.00 62 1007.9
20260505184737 61 331 0.0 0.0 0.00 0.00 0.00 64 1007.8
20260505184237 62 331 0.0 1.7 0.00 0.00 0.00 62 1007.7
20260505183737 63 264 0.0 1.7 0.00 0.00 0.00 62 1007.6
20260505183237 63 317 0.0 2.6 0.00 0.00 0.00 60 1007.5
20260505182737 63 316 0.9 5.2 0.00 0.00 0.00 63 1007.7
20260505182237 63 285 0.0 3.5 0.00 0.00 0.00 59 1007.7
20260505181737 63 337 0.0 1.7 0.00 0.00 0.00 64 1007.4
20260505181237 62 251 0.0 0.0 0.00 0.00 0.00 69 1007.1
20260505180737 61 251 0.0 0.0 0.00 0.00 0.00 74 1007.3
20260505180237 61 251 0.0 0.0 0.00 0.00 0.00 71 1007.4
20260505175737 61 251 0.0 0.0 0.00 0.00 0.00 68 1007.3
20260505175237 61 251 0.0 0.0 0.00 0.00 0.00 67 1007.2
20260505174737 61 251 0.0 0.0 0.00 0.00 0.00 67 1007.3
20260505174237 61 251 0.0 0.0 0.00 0.00 0.00 61 1007.2
20260505173737 61 251 0.0 0.0 0.00 0.00 0.00 63 1007.2
20260505173237 61 251 0.0 0.0 0.00 0.00 0.00 63 1007.3
20260505172737 61 251 0.0 0.0 0.00 0.00 0.00 61 1006.9
20260505172237 62 251 0.0 2.6 0.00 0.00 0.00 61 1007.0
20260505171737 62 307 0.9 0.9 0.00 0.00 0.00 62 1007.0
20260505171237 62 330 0.0 0.0 0.00 0.00 0.00 55 1007.0
20260505170737 62 330 0.0 2.6 0.00 0.00 0.00 61 1007.2
20260505170237 62 0 0.0 1.7 0.00 0.00 0.00 62 1007.3
20260505165737 63 8 0.0 0.0 0.00 0.00 0.00 62 1007.4
20260505165237 63 8 0.0 4.3 0.00 0.00 0.00 62 1007.3
20260505164737 62 101 0.0 0.0 0.00 0.00 0.00 59 1007.3
20260505164237 62 101 0.0 0.0 0.00 0.00 0.00 60 1007.3
20260505163737 62 101 0.0 0.0 0.00 0.00 0.00 57 1007.1
20260505163237 62 101 0.0 1.7 0.00 0.00 0.00 61 1006.9
20260505162737 62 80 0.0 1.7 0.00 0.00 0.00 59 1006.6
20260505162237 61 99 0.0 0.0 0.00 0.00 0.00 61 1006.5
20260505161737 61 99 0.0 0.0 0.00 0.00 0.00 59 1006.4
20260505161237 61 99 0.0 1.7 0.00 0.00 0.00 57 1006.4
20260505160737 62 139 0.0 5.2 0.00 0.00 0.00 60 1006.5
20260505160237 62 337 0.0 5.2 0.00 0.00 0.00 63 1006.6
20260505153237 62 307 3.5 6.1 0.00 0.00 0.00 62 1006.6
20260505152737 62 172 0.0 4.3 0.00 0.00 0.00 63 1006.7
20260505152237 62 104 0.0 7.0 0.00 0.00 0.00 59 1006.5
20260505151737 62 111 0.0 7.0 0.00 0.00 0.00 63 1006.4
20260505151237 62 316 0.9 3.5 0.00 0.00 0.00 66 1006.3
20260505150737 61 281 2.6 5.2 0.00 0.00 0.00 65 1006.3
20260505150237 62 291 0.0 5.2 0.00 0.00 0.00 65 1006.3
20260505140237 60 219 0.9 4.3 0.00 0.00 0.00 71 1005.5
20260505130238 62 350 4.3 7.8 0.00 0.00 0.00 79 1004.0
20260505124738 60 345 2.6 7.0 0.00 0.00 0.00 82 1003.8
20260505124238 60 327 2.6 8.7 0.00 0.00 0.00 82 1004.0
20260505123738 60 358 5.2 7.8 0.00 0.00 0.00 82 1004.0
20260505123238 60 302 0.0 7.8 0.00 0.00 0.00 83 1004.0
20260505122738 60 279 5.2 10.4 0.00 0.00 0.00 83 1004.1
20260505122238 60 215 0.9 5.2 0.00 0.00 0.00 84 1004.0
20260505121738 59 284 0.0 6.1 0.00 0.00 0.00 84 1004.1
20260505121238 59 2 0.0 6.1 0.00 0.00 0.00 84 1004.1
20260505120738 59 358 3.5 8.7 0.00 0.00 0.00 83 1004.0
20260505120238 59 310 2.6 7.8 0.00 0.00 0.00 83 1003.7
20260505115738 59 229 0.0 3.5 0.00 0.00 0.00 84 1003.6
20260505115238 59 319 1.7 4.3 0.00 0.00 0.00 83 1003.4
20260505114738 59 160 0.9 6.1 0.00 0.00 0.00 83 1003.4
20260505114238 59 101 0.0 7.8 0.00 0.00 0.00 83 1003.3
20260505113738 58 344 0.9 4.3 0.00 0.00 0.00 83 1003.3
20260505113238 59 320 0.0 5.2 0.00 0.00 0.00 84 1003.3
20260505112738 59 192 2.6 3.5 0.00 0.00 0.00 83 1003.1
20260505112238 59 80 0.0 3.5 0.00 0.00 0.00 83 1002.9
20260505111738 59 178 0.0 5.2 0.00 0.00 0.00 83 1002.8
20260505111238 59 198 2.6 3.5 0.00 0.00 0.00 83 1002.8
20260505110738 59 312 0.0 2.6 0.00 0.00 0.00 83 1002.8
20260505110238 59 261 0.0 0.9 0.00 0.00 0.00 83 1002.6
20260505101738 59 317 4.3 5.2 0.00 0.00 0.00 81 1001.9
20260505101238 59 70 0.9 8.7 0.00 0.00 0.00 81 1001.9
20260505100738 59 129 0.9 4.3 0.00 0.00 0.00 81 1001.8
20260505100238 60 344 0.0 5.2 0.00 0.00 0.00 80 1001.8
20260505095738 60 330 0.9 5.2 0.00 0.00 0.00 81 1001.9
20260505095238 59 285 0.0 6.1 0.00 0.00 0.00 81 1001.9
20260505094738 60 251 0.0 6.1 0.00 0.00 0.00 81 1001.9
20260505094238 60 347 1.7 4.3 0.00 0.00 0.00 81 1001.9
20260505093738 60 45 0.0 5.2 0.00 0.00 0.00 81 1001.8
20260505093238 60 267 0.9 3.5 0.00 0.00 0.00 81 1001.6
20260505092738 60 188 1.7 2.6 0.00 0.00 0.00 81 1001.7
20260505092238 60 255 0.0 4.3 0.00 0.00 0.00 81 1001.7
20260505091738 60 358 2.6 4.3 0.00 0.00 0.00 81 1001.7
20260505091238 60 170 0.0 6.1 0.00 0.00 0.00 81 1001.7
20260505090738 60 285 0.9 5.2 0.00 0.00 0.00 81 1001.6
20260505090238 60 258 0.0 6.1 0.00 0.00 0.00 81 1001.6
20260505085738 60 216 0.9 3.5 0.00 0.00 0.00 81 1001.5
20260505085238 60 194 0.0 7.8 0.00 0.00 0.00 80 1001.4
20260505084738 60 168 0.0 10.4 0.00 0.00 0.00 81 1001.4
20260505084238 60 317 0.9 7.8 0.00 0.00 0.00 80 1001.2
20260505083738 60 199 7.0 7.0 0.00 0.00 0.00 80 1001.1
20260505083238 60 306 0.0 7.8 0.00 0.00 0.00 81 1001.1
20260505082738 60 278 0.9 4.3 0.00 0.00 0.00 80 1000.9
20260505082238 60 351 0.9 3.5 0.00 0.00 0.00 80 1000.9
20260505081738 60 250 0.9 5.2 0.00 0.00 0.00 80 1000.7
20260505081238 60 201 1.7 3.5 0.00 0.00 0.00 80 1000.7
20260505080738 60 268 0.0 7.0 0.00 0.00 0.00 80 1000.4
20260505080238 60 184 6.1 6.1 0.00 0.00 0.00 80 1000.5
20260505075738 60 149 0.9 6.1 0.00 0.00 0.00 79 1000.4
20260505075238 60 255 2.6 7.8 0.00 0.00 0.00 79 1000.3
20260505074738 60 299 0.0 4.3 0.00 0.00 0.00 78 1000.4
20260505074238 60 232 3.5 6.1 0.00 0.00 0.00 78 1000.3
20260505073738 61 18 0.0 6.1 0.00 0.00 0.00 79 1000.3
20260505073238 61 205 4.3 6.1 0.00 0.00 0.00 78 1000.1
20260505072738 61 222 1.7 6.1 0.00 0.00 0.00 78 1000.0
20260505072238 60 223 4.3 7.8 0.00 0.00 0.00 78 1000.0
20260505071738 60 247 1.7 7.0 0.00 0.00 0.00 79 999.9
20260505071238 60 199 5.2 5.2 0.00 0.00 0.00 80 1000.0